Starlink 31595

operational
NORAD ID: 59273 Int'l Des: 2024-050 Owner: SPXS Country: US Constellation: starlink
LEOCIRCULAR

Über Starlink 31595

Beschreibung wird geladen...

Live-Position

3D-Globus wird geladen...

Nächste Überflüge

Höhenverlauf

Altitude vs Time

uPlot chart will show altitude changes over time

Zweizeiliger Elementsatz

1 59273U 24050V 25352.79503784 .00000426 00000-0 26493-4 0 9997
2 59273 53.1575 196.7238 0001223 80.5110 279.6029 15.30200917 98160
Epoch: 18. Dez. 2025 • Age: 9 hours

Aktueller Status

Höhe 490.8 km
Geschwindigkeit 7.62 km/s
Subsatellitenpunkt -44.31°S, 3.08°W
Startdatum 19. März 2024
Alter 1.7 years
Typ internet

Technische Details

Klassifizierung Payload
Masse 730.00 kg
Trockenmasse 700.00 kg
Gesamtmasse 730.00 kg
Länge 0.30 m
Durchmesser 4.10 m
Spannweite 29.00 m
Form Box + pan
Hersteller SPXS
Bus-Typ Starlink V2M
Phasenstatus In Orbit
Besitzer/Staat SPXS/US

Große Konstellationen

Loading constellations...